Regional Weather Roundup
Issued by NWS

Home | Current Version | Previous Version | Graphics & Text | Print | Product List | Glossary On
Versions: 1 2 3 4 5 6 7 8 9 10 11 12 13 14 15 16 17 18 19 20 21 22 23 24 25 26 27
000
ASUS45 KBOU 291607
RWRCO

WEATHER ROUNDUP FOR COLORADO
NATIONAL WEATHER SERVICE DENVER/BOULDER CO
1000 AM MDT WED MAR 29 2017

NOTE: "FAIR" INDICATES FEW OR NO CLOUDS BELOW 12000 FEET WITH NO
SIGNIFICANT WEATHER AND/OR OBSTRUCTIONS TO VISIBILITY.

COZ001>005-013-030-031-291700-
...NORTHWEST COLORADO...

CITY           SKY/WX    TMP DP  RH WIND       PRES   REMARKS
CRAIG          PTSUNNY   38  29  70 CALM      30.20S
HAYDEN         CLOUDY    32  27  80 NE3       30.20S
MEEKER         PTSUNNY   37  33  85 CALM      30.20R
MOUNT WERNER   NOT AVBL
STEAMBOAT SPGS CLOUDY    32  29  87 CALM      30.18S
WALDEN         NOT AVBL
$$

COZ006>008-011-291700-
...WEST CENTRAL VALLEYS...

CITY           SKY/WX    TMP DP  RH WIND       PRES   REMARKS
GRAND JUNCTION FAIR      50  31  48 W5        30.16R
MONTROSE       FAIR      43  31  62 VRB5      30.17S
EAGLE          MOSUNNY   45  25  45 E7        30.17S
RIFLE          FAIR      45  30  55 SE5       30.16F
DELTA          FAIR      47  33  57 CALM      30.14S
NUCLA          FAIR      46  28  49 CALM      30.17S
$$

COZ017>023-064>068-291700-
...SOUTHWEST COLORADO...

CITY           SKY/WX    TMP DP  RH WIND       PRES   REMARKS
DURANGO        FAIR      44  35  70 CALM      30.02R
CORTEZ         FAIR      49  28  44 N21G32    30.06S
PAGOSA SPRINGS FAIR      42  29  59 E3        30.04S
TELLURIDE      CLOUDY    32  25  76 W6        30.16S WCI  26
WOLF CREEK PAS CLOUDY    21  21 100 N8G16     30.15R WCI  12
$$

COZ009-010-012-014-032>034-037-058>063-291700-
...CENTRAL COLORADO...

CITY           SKY/WX    TMP DP  RH WIND       PRES   REMARKS
ASPEN          PTSUNNY   39  29  67 VRB5      30.14S
BUENA VISTA    FAIR      42  24  48 NW20G26   30.09R
COPPER MTN     CLOUDY    25  19  80 MISG      30.16R
BERTHOUD PASS  CLOUDY    14   5  67 N16G28    30.15R WCI  -2
COTTONWOOD PAS FAIR      36  27  69 CALM      30.11R
GUNNISON       FAIR      38  28  67 SW6       30.12S
KREMMLING      FAIR      43  23  45 N7        30.17S
LEADVILLE      CLOUDY    27  18  69 N13G21    30.13R WCI  16
MONARCH PASS     N/A     23  21  93 MISG      30.22S
SALIDA         FAIR      41  32  71 CALM      30.15S
SUNLIGHT       FAIR      23  21  93 NE3       30.22S
WILKERSON PASS CLOUDY   N/A N/A N/A NE10G20   30.14S
$$

COZ069>075-291700-
...SAN LUIS VALLEY/SANGRE DE CRISTO MOUNTAINS...

CITY           SKY/WX    TMP DP  RH WIND       PRES   REMARKS
ALAMOSA        CLOUDY    40  31  70 NE10      30.04R
LA VETA PASS   NOT AVBL
SAGUACHE       FAIR      41  25  52 NW14G24   30.07R
$$

COZ035-036-038>040-291700-
...NORTHERN COLORADO FRONT RANGE...

CITY           SKY/WX    TMP DP  RH WIND       PRES   REMARKS
DENVER INTL AP CLOUDY    39  35  86 N12       30.12R
DMNS CITY PARK   N/A     41  35  77 N6G12     30.13S
AURORA         NOT AVBL
FRONT RANGE AP CLOUDY    41  39  93 NW15      30.12S
ERIE MUNI ARPT CLOUDY    42  36  80 N3        30.13S
BOULDER MUN AP CLOUDY    41  36  81 CALM      30.12S
CENTENNIAL     CLOUDY    37  36  96 N14       30.12R
BROOMFIELD     PTSUNNY   41  37  87 NW6       30.13R
FORT COLLINS   FAIR      46  37  71 N8        30.12S
LONGMONT       CLOUDY    46  37  70 CALM      30.15R
$$

COZ041-046-047-076>085-087-088-291700-
...PIKES PEAK/PALMER DIVIDE AND SOUTHERN FOOTHILLS...

CITY           SKY/WX    TMP DP  RH WIND       PRES   REMARKS
COLO. SPRINGS  FLURRIES  41  31  67 NW24G32   30.07R
A. F. ACADEMY  FLURRIES  35  33  93 N22G33    30.08R WCI  23
SCHRIEVER AFB  PTSUNNY   39  32  76 N26G36    30.07R
ELLICOTT       PTSUNNY  N/A N/A N/A MISG      30.03S
FALCON         CLOUDY    35  32  90 N23G33    30.07S WCI  23
FORT CARSON    CLOUDY    42  31  65 N28G40    30.05R
LIMON          FLURRIES  35  35 100 N20       30.06S WCI  24
MONUMENT HILL  CLOUDY    32  30  93 N20       30.11R WCI  20
TRINIDAD       LGT RAIN  36  33  89 NW16      30.06R
$$

COZ042>045-048>051-090-091-291700-
...NORTHEAST COLORADO...

CITY           SKY/WX    TMP DP  RH WIND       PRES   REMARKS
GREELEY ARPT   CLOUDY    44  38  79 N14       30.13S
AKRON          CLOUDY    37  35  92 N16       30.09R
BURLINGTON     CLOUDY    39  38  96 N23G33    30.00S
WRAY           NOT AVBL
STERLING       CLOUDY    41  37  87 NE9       30.10S
HOLYOKE        CLOUDY    43  41  93 N17       30.08S
FORT MORGAN    CLOUDY    41  37  85 N13       30.12S
$$

COZ086-089-092>099-291700-
...SOUTHEAST COLORADO...

CITY           SKY/WX    TMP DP  RH WIND       PRES   REMARKS
PUEBLO         LGT RAIN  44  35  70 N9        30.08R
LA JUNTA       LGT RAIN  41  37  86 N22G28    30.04S
LAMAR          LGT RAIN  41  37  86 N17G28    29.98S
SPRINGFIELD      N/A     38  36  92 N33G46    29.93R
$$




USA.gov is the U.S. government's official web portal to all federal, state and local government web resources and services.